sat.trackr.live / text

‹ back to catalog

YAOGAN-28

NORAD 41026 · 2015-064A

PAYLOAD ACTIVE UNKNOWN

§ Identity

Operator
Country
PRC
Launch date
2015-11-08
Launch site
TAISC
Launch vehicle
Mass (kg)
RCS (m²)
4.81

Purposes: earth_obs

External: N2YO · Heavens-Above · Gunter

§ Orbital elements

Epoch: 2026-09-20T05:10:39.080640Z

Period
94.21 min
Inclination
97.3204°
Eccentricity
0.0009616
Mean motion
15.28497452 rev/d
Perigee alt
473.7 km
Apogee alt
486.9 km
Semi-major
6,858.4 km
B*
1.9715e-4
RAAN
39.6920°
Arg perigee
206.9832°
Mean anomaly
153.0909°
Rev number
60,519

§ Raw data

YAOGAN-281 41026U 15064A   26263.21573010  .00005400  00000+0  19715-3 0  99912 41026  97.3204  39.6920 0009616 206.9832 153.0909 15.28497452605196

JSON: /api/v1/satellites/41026 · /tle

For live sub-satellite position, see the globe view (requires WebGL).

§ Visibility from observer

Set your observer location to see the next 7 days of passes ≥ 10°. The values pass through the URL so the page stays shareable.

No JS? Fill the form by hand. The geolocation button needs JavaScript.